Yellowstone Natl Park, WY

7:38 PM MST on February 22, 2017 (GMT -0700)
Yellowstone

Weather History for KP60 - October, 2012

Change the Weather History Date:

Wednesday, October 17, 2012

  Actual Average Record
Temperature  
Mean Temperature 28 °F 35 °F  
Max Temperature 37 °F 48 °F 64 °F (2015)
Min Temperature 19 °F 23 °F 12 °F (1999)
Degree Days  
Heating Degree Days 37 30  
Month to date heating degree days 456  
Since 1 July heating degree days 1591  
Cooling Degree Days 0 0  
Month to date cooling degree days 0  
Year to date cooling degree days 0  
Moisture  
Dew Point 14 °F    
Average Humidity 56    
Maximum Humidity 81    
Minimum Humidity 37    
Precipitation  
Precipitation 0.00 in 0.05 in 0.36 in (2016)
Month to date precipitation 0.67  
Year to date precipitation 16.04  
Sea Level Pressure  
Sea Level Pressure 30.10 in    
Wind  
Wind Speed 7 mph (West)    
Max Wind Speed 15 mph    
Max Gust Speed 26 mph    
T = Trace of Precipitation, MM = Missing Value Source: NWS Daily Summary

Daily Weather History Graph

Daily Weather History Graph

Search for Another Location

Airport or City:

Trip Planner

Search our weather history database for the weather conditions in past years. The results will help you decide how hot, cold, wet, or windy it might be!

Date:

Astronomy

Oct. 17, 2012 Rise Set
Actual Time 7:40 AM MDT 6:32 PM MDT
Civil Twilight 7:10 AM MDT 7:02 PM MDT
Nautical Twilight 6:36 AM MDT 7:36 PM MDT
Astronomical Twilight 6:03 AM MDT 8:09 PM MDT
Moon 10:25 AM MDT (10/17) 8:04 PM MDT (10/17)
Length of Visible Light 11h 51m
Length of Day
10h 52m
Waxing Crescent, 7% of the Moon is Illuminated
Oct 17
Waxing Crescent
Oct 21
First Quarter
Oct 29
Full
Nov 6
Last Quarter
Nov 13
New

Hourly Weather History & Observations

Time (MDT) Temp. Windchill Dew Point Humidity Pressure Visibility Wind Dir Wind Speed Gust Speed Precip Events Conditions
12:56 AM 27.0 °F 20.5 °F 14.0 °F 58% 29.90 in - West 5.8 mph - N/A   Unknown
1:56 AM 26.1 °F 17.6 °F 12.0 °F 55% 29.93 in - West 8.1 mph 17.3 mph N/A   Unknown
2:56 AM 26.1 °F 19.4 °F 12.0 °F 55% 29.94 in - West 5.8 mph - N/A   Unknown
3:56 AM 24.1 °F 17.0 °F 12.9 °F 62% 30.01 in - Variable 5.8 mph - N/A   Unknown
4:56 AM 23.0 °F 17.0 °F 15.1 °F 72% 30.03 in - Variable 4.6 mph - N/A   Unknown
5:56 AM 21.0 °F - 15.1 °F 78% 30.04 in - Calm Calm - N/A   Unknown
6:56 AM 21.0 °F 14.6 °F 15.1 °F 78% 30.07 in - WNW 4.6 mph - N/A   Unknown
7:56 AM 19.0 °F 13.9 °F 14.0 °F 81% 30.10 in - WNW 3.5 mph - N/A   Unknown
8:56 AM 26.1 °F 19.4 °F 15.1 °F 63% 30.10 in - West 5.8 mph - N/A   Unknown
9:56 AM 28.0 °F 18.6 °F 14.0 °F 56% 30.08 in - West 10.4 mph 20.7 mph N/A   Unknown
10:56 AM 30.0 °F 20.5 °F 14.0 °F 51% 30.09 in - WNW 11.5 mph 25.3 mph N/A   Unknown
11:56 AM 30.9 °F 22.2 °F 12.9 °F 47% 30.10 in - West 10.4 mph 26.5 mph N/A   Unknown
12:56 PM 34.0 °F 26.0 °F 14.0 °F 44% 30.09 in - West 10.4 mph 24.2 mph N/A   Unknown
1:56 PM 34.0 °F 25.0 °F 12.9 °F 42% 30.08 in - West 12.7 mph 21.9 mph N/A   Unknown
2:56 PM 37.0 °F 28.9 °F 14.0 °F 39% 30.05 in - West 12.7 mph 23.0 mph N/A   Unknown
3:56 PM 36.0 °F 26.7 °F 12.0 °F 37% 30.09 in - West 15.0 mph 25.3 mph N/A   Unknown
4:56 PM 36.0 °F 29.0 °F 15.1 °F 43% 30.11 in - West 9.2 mph 19.6 mph N/A   Unknown
5:56 PM 33.1 °F 26.9 °F 15.1 °F 48% 30.17 in - Variable 6.9 mph - N/A   Unknown
6:56 PM 32.0 °F 25.6 °F 14.0 °F 48% 30.19 in - West 6.9 mph - N/A   Unknown
7:56 PM 30.0 °F 24.1 °F 15.1 °F 54% 30.23 in - West 5.8 mph - N/A   Unknown
8:56 PM 30.0 °F 23.2 °F 15.1 °F 54% 30.22 in - West 6.9 mph 16.1 mph N/A   Unknown
9:56 PM 28.9 °F 25.2 °F 15.1 °F 56% 30.22 in - Variable 3.5 mph - N/A   Unknown
10:56 PM 28.0 °F 24.2 °F 14.0 °F 56% 30.24 in - Variable 3.5 mph - N/A   Unknown
11:56 PM 27.0 °F - 14.0 °F 58% 30.26 in - Calm Calm - N/A   Unknown